Location: Unspecified
(0.0000°N, 0.0000°E)
Time: 10:30:50
(UTC+00:00)

A-11 Canister half - Pass Details

Date: 10 August 2021
Orbit: 1515 x 1685 km, 47.2° (Epoch: 27 September)

Event Time Altitude Azimuth Distance (km) Brightness Sun altitude
Rises 00:18:52 0° 306° (NW) 4,928 - -74.1°
Reaches altitude 10° 00:22:13 10° 301° (WNW) 3,938 - -73.9°
Maximum altitude 00:31:45 47° 230° (SW) 2,109 - -73.1°
Drops below altitude 10° 00:41:08 10° 159° (SSE) 3,861 - -72.1°
Sets 00:44:25 0° 153° (SSE) 4,825 - -71.7°
